When you browse on this site, cookies collect data to enhance your experience and personalize the content and advertising you see.
Visit our Privacy Policy to learn more. By continuing to use the site, you agree to this use of cookies and data.

Hourly Weather Yasna

Today, 3 July, Friday

Time Temperature Precipitation Wind Pressure Humidity
00:00 +18°C° 0 mm 1 mps 714 mmHg 91%
01:00 +18°C° 0 mm 1 mps 714 mmHg 91%
02:00 +18°C° 0.1 mm 1 mps 714 mmHg 91%
03:00 +18°C° 0.1 mm 1 mps 714 mmHg 91%
04:00 +16°C° 0.1 mm 1 mps 714 mmHg 91%
05:00 +19°C° 0.3 mm 1 mps 714 mmHg 90%
06:00 +20°C° 0.3 mm 1 mps 715 mmHg 89%
07:00 +21°C° 0.3 mm 1 mps 715 mmHg 88%
08:00 +21°C° 0.4 mm 2 mps 716 mmHg 82%
09:00 +23°C° 0.4 mm 2 mps 716 mmHg 76%
10:00 +24°C° 0.4 mm 3 mps 716 mmHg 69%
11:00 +25°C° 0.2 mm 3 mps 716 mmHg 66%
12:00 +25°C° 0.2 mm 3 mps 716 mmHg 63%
13:00 +26°C° 0.2 mm 3 mps 717 mmHg 60%
14:00 +25°C° 0.4 mm 3 mps 716 mmHg 63%
15:00 +25°C° 0.4 mm 3 mps 716 mmHg 66%
16:00 +24°C° 0.4 mm 3 mps 716 mmHg 69%
17:00 +23°C° 0.3 mm 2 mps 717 mmHg 75%
18:00 +20°C° 0.3 mm 2 mps 717 mmHg 80%
19:00 +20°C° 0.3 mm 1 mps 717 mmHg 86%
20:00 +19°C° 0.2 mm 1 mps 717 mmHg 88%
21:00 +17°C° 0.2 mm 2 mps 717 mmHg 90%
22:00 +16°C° 0.2 mm 2 mps 717 mmHg 93%
23:00 +16°C° 0 mm 2 mps 717 mmHg 93%

Tomorrow, 4 July, Saturday

Time Temperature Precipitation Wind Pressure Humidity
00:00 +15°C° 0 mm 2 mps 717 mmHg 93%
01:00 +15°C° 0 mm 2 mps 717 mmHg 93%
02:00 +15°C° 0 mm 2 mps 718 mmHg 92%
03:00 +15°C° 0 mm 2 mps 718 mmHg 91%
04:00 +16°C° 0 mm 1 mps 718 mmHg 89%
05:00 +18°C° 0 mm 1 mps 718 mmHg 85%
06:00 +19°C° 0 mm 1 mps 718 mmHg 81%
07:00 +20°C° 0 mm 1 mps 719 mmHg 77%
08:00 +22°C° 0.1 mm 1 mps 719 mmHg 72%
09:00 +24°C° 0.1 mm 1 mps 719 mmHg 67%
10:00 +25°C° 0.1 mm 1 mps 720 mmHg 62%
11:00 +25°C° 0.6 mm 1 mps 719 mmHg 64%
12:00 +25°C° 0.6 mm 1 mps 719 mmHg 67%
13:00 +25°C° 0.6 mm 1 mps 719 mmHg 69%
14:00 +25°C° 0.7 mm 1 mps 718 mmHg 71%
15:00 +24°C° 0.7 mm 1 mps 718 mmHg 72%
16:00 +24°C° 0.7 mm 1 mps 718 mmHg 74%
17:00 +23°C° 0.2 mm 1 mps 718 mmHg 78%
18:00 +22°C° 0.2 mm 1 mps 718 mmHg 81%
19:00 +19°C° 0.2 mm 0 mps 718 mmHg 85%
20:00 +20°C° 0 mm 1 mps 718 mmHg 87%
21:00 +19°C° 0 mm 1 mps 718 mmHg 88%
22:00 +18°C° 0 mm 1 mps 718 mmHg 90%
23:00 +16°C° 0 mm 1 mps 718 mmHg 90%

Day after tomorrow, 5 July, Sunday

Time Temperature Precipitation Wind Pressure Humidity
00:00 +16°C° 0 mm 1 mps 718 mmHg 91%
01:00 +15°C° 0 mm 1 mps 718 mmHg 91%
02:00 +15°C° 0 mm 1 mps 718 mmHg 91%
03:00 +14°C° 0 mm 1 mps 718 mmHg 91%
04:00 +14°C° 0 mm 1 mps 718 mmHg 91%
05:00 +15°C° 0 mm 1 mps 718 mmHg 86%
06:00 +18°C° 0 mm 1 mps 718 mmHg 81%
07:00 +20°C° 0 mm 1 mps 718 mmHg 76%
08:00 +22°C° 0 mm 1 mps 719 mmHg 67%
09:00 +24°C° 0 mm 1 mps 719 mmHg 57%
10:00 +26°C° 0 mm 2 mps 719 mmHg 47%
11:00 +26°C° 0 mm 2 mps 719 mmHg 46%
12:00 +27°C° 0 mm 2 mps 719 mmHg 44%
13:00 +28°C° 0 mm 3 mps 718 mmHg 43%
14:00 +28°C° 0 mm 3 mps 718 mmHg 47%
15:00 +27°C° 0 mm 3 mps 718 mmHg 50%
16:00 +27°C° 0 mm 3 mps 718 mmHg 53%
17:00 +26°C° 0 mm 2 mps 717 mmHg 62%
18:00 +24°C° 0 mm 2 mps 717 mmHg 71%
19:00 +21°C° 0 mm 2 mps 717 mmHg 80%
20:00 +20°C° 0 mm 2 mps 717 mmHg 84%
21:00 +20°C° 0 mm 1 mps 717 mmHg 87%
22:00 +19°C° 0 mm 1 mps 717 mmHg 90%
23:00 +18°C° 0 mm 1 mps 717 mmHg 90%

6 July, Monday

Time Temperature Precipitation Wind Pressure Humidity
00:00 +18°C° 0 mm 1 mps 717 mmHg 91%
01:00 +18°C° 0 mm 1 mps 717 mmHg 92%
02:00 +16°C° 0 mm 1 mps 716 mmHg 92%
03:00 +16°C° 0 mm 1 mps 716 mmHg 92%
04:00 +16°C° 0 mm 1 mps 716 mmHg 93%
05:00 +19°C° 0 mm 1 mps 716 mmHg 86%
06:00 +21°C° 0 mm 1 mps 716 mmHg 80%
07:00 +23°C° 0 mm 1 mps 717 mmHg 74%
08:00 +24°C° 0 mm 1 mps 717 mmHg 68%
09:00 +26°C° 0 mm 1 mps 717 mmHg 63%
10:00 +27°C° 0 mm 1 mps 717 mmHg 57%
11:00 +27°C° 0 mm 2 mps 716 mmHg 56%
12:00 +28°C° 0 mm 2 mps 716 mmHg 55%
13:00 +28°C° 0 mm 2 mps 716 mmHg 54%
14:00 +28°C° 0.1 mm 3 mps 715 mmHg 56%
15:00 +28°C° 0.1 mm 3 mps 715 mmHg 57%
16:00 +27°C° 0.1 mm 3 mps 715 mmHg 59%
17:00 +26°C° 0.1 mm 2 mps 714 mmHg 66%
18:00 +24°C° 0.1 mm 2 mps 714 mmHg 73%
19:00 +23°C° 0.1 mm 2 mps 714 mmHg 80%
20:00 +20°C° 0 mm 2 mps 714 mmHg 83%
21:00 +19°C° 0 mm 2 mps 714 mmHg 86%
22:00 +18°C° 0 mm 2 mps 714 mmHg 88%
23:00 +17°C° 0.1 mm 2 mps 715 mmHg 90%

7 July, Tuesday

Time Temperature Precipitation Wind Pressure Humidity
00:00 +17°C° 0.1 mm 2 mps 715 mmHg 91%
01:00 +17°C° 0.1 mm 2 mps 715 mmHg 93%
02:00 +16°C° 0.3 mm 2 mps 715 mmHg 91%
03:00 +16°C° 0.3 mm 2 mps 715 mmHg 90%
04:00 +16°C° 0.3 mm 2 mps 715 mmHg 89%
05:00 +14°C° 0.1 mm 3 mps 716 mmHg 87%
06:00 +14°C° 0.1 mm 3 mps 716 mmHg 84%
07:00 +14°C° 0.1 mm 4 mps 717 mmHg 82%
08:00 +13°C° 0.1 mm 3 mps 717 mmHg 82%
09:00 +13°C° 0.1 mm 3 mps 717 mmHg 82%
10:00 +13°C° 0.1 mm 3 mps 717 mmHg 82%
11:00 +12°C° 0.5 mm 3 mps 717 mmHg 86%
12:00 +12°C° 0.5 mm 3 mps 717 mmHg 90%
13:00 +12°C° 0.5 mm 2 mps 717 mmHg 94%
14:00 +13°C° 0.4 mm 2 mps 717 mmHg 89%
15:00 +13°C° 0.4 mm 2 mps 717 mmHg 85%
16:00 +14°C° 0.4 mm 2 mps 718 mmHg 80%
17:00 +14°C° 0 mm 2 mps 718 mmHg 81%
18:00 +14°C° 0 mm 1 mps 718 mmHg 82%
19:00 +14°C° 0 mm 1 mps 718 mmHg 83%
20:00 +12°C° 0 mm 1 mps 718 mmHg 87%
21:00 +11°C° 0 mm 1 mps 718 mmHg 90%
22:00 +10°C° 0 mm 1 mps 719 mmHg 94%
23:00 +10°C° 0 mm 1 mps 719 mmHg 94%

8 July, Wednesday

Time Temperature Precipitation Wind Pressure Humidity
00:00 +9°C° 0 mm 1 mps 719 mmHg 94%
01:00 +8°C° 0 mm 2 mps 719 mmHg 94%
02:00 +8°C° 0 mm 2 mps 719 mmHg 94%
03:00 +7°C° 0 mm 2 mps 719 mmHg 94%
04:00 +7°C° 0 mm 2 mps 719 mmHg 94%
05:00 +9°C° 0 mm 2 mps 720 mmHg 85%
06:00 +12°C° 0 mm 2 mps 720 mmHg 77%
07:00 +14°C° 0 mm 1 mps 720 mmHg 68%
08:00 +15°C° 0 mm 2 mps 720 mmHg 62%
09:00 +17°C° 0 mm 2 mps 721 mmHg 55%
10:00 +19°C° 0 mm 2 mps 721 mmHg 48%
11:00 +19°C° 0 mm 2 mps 721 mmHg 47%
12:00 +20°C° 0 mm 2 mps 721 mmHg 45%
13:00 +21°C° 0 mm 2 mps 721 mmHg 43%
14:00 +21°C° 0 mm 2 mps 721 mmHg 45%
15:00 +21°C° 0 mm 2 mps 721 mmHg 47%
16:00 +21°C° 0 mm 2 mps 721 mmHg 49%
17:00 +19°C° 0 mm 2 mps 720 mmHg 57%
18:00 +17°C° 0 mm 2 mps 720 mmHg 66%
19:00 +16°C° 0 mm 1 mps 720 mmHg 74%
20:00 +14°C° 0 mm 1 mps 720 mmHg 76%
21:00 +13°C° 0 mm 1 mps 721 mmHg 78%
22:00 +12°C° 0 mm 2 mps 721 mmHg 80%
23:00 +11°C° 0 mm 1 mps 721 mmHg 81%
Show more